Time,TemperatureF,DewpointF,PressureIn,WindDirection,WindDirectionDegrees,WindSpeedMPH,WindSpeedGustMPH,Humidity,HourlyPrecipIn,Conditions,Clouds,dailyrainin,SoftwareType,DateUTC
2013-04-27 00:01:00,73.1,65.8,30.17,North,11,0.0,0.0,78,0.00,,---,0.00,VWS V13.01,2013-04-27 04:01:00,
2013-04-27 00:02:00,73.1,65.8,30.18,North,11,0.0,0.0,78,0.00,,---,0.00,VWS V13.01,2013-04-27 04:02:00,
2013-04-27 00:07:00,73.1,66.2,30.17,NNE,18,0.0,0.0,79,0.00,,---,0.00,VWS V13.01,2013-04-27 04:07:00,
2013-04-27 00:12:00,73.0,66.1,30.17,NNE,19,0.0,0.0,79,0.00,,---,0.00,VWS V13.01,2013-04-27 04:12:00,
2013-04-27 00:17:00,73.0,66.1,30.17,NNE,19,0.0,0.0,79,0.00,,---,0.00,VWS V13.01,2013-04-27 04:17:00,
2013-04-27 00:22:00,73.0,66.5,30.17,NNE,20,0.0,0.0,80,0.00,,---,0.00,VWS V13.01,2013-04-27 04:22:00,
2013-04-27 00:27:00,73.1,66.6,30.17,NNE,30,0.0,0.0,80,0.00,,---,0.00,VWS V13.01,2013-04-27 04:27:00,
2013-04-27 00:32:00,73.2,66.7,30.17,East,88,0.0,0.0,80,0.00,,---,0.00,VWS V13.01,2013-04-27 04:32:00,
2013-04-27 00:37:00,73.4,66.9,30.17,ESE,117,0.0,0.0,80,0.00,,---,0.00,VWS V13.01,2013-04-27 04:37:00,
2013-04-27 00:42:00,73.6,67.1,30.17,East,93,0.0,0.0,80,0.00,,---,0.00,VWS V13.01,2013-04-27 04:42:00,
2013-04-27 00:47:00,73.7,66.8,30.17,ESE,123,0.0,0.0,79,0.00,,---,0.00,VWS V13.01,2013-04-27 04:47:00,
2013-04-27 00:52:00,73.8,66.5,30.17,SE,128,0.0,0.0,78,0.00,,---,0.00,VWS V13.01,2013-04-27 04:52:00,
2013-04-27 00:57:00,73.9,66.6,30.17,ESE,121,0.0,0.0,78,0.00,,---,0.00,VWS V13.01,2013-04-27 04:57:00,
2013-04-27 01:03:00,74.1,66.4,30.17,ESE,113,0.0,0.0,77,0.00,,---,0.00,VWS V13.01,2013-04-27 05:03:00,
2013-04-27 01:08:00,74.2,66.5,30.17,ESE,115,0.0,0.0,77,0.00,,---,0.00,VWS V13.01,2013-04-27 05:08:00,
2013-04-27 01:13:00,74.2,66.5,30.17,ESE,117,0.0,0.0,77,0.00,,---,0.00,VWS V13.01,2013-04-27 05:13:00,
2013-04-27 01:18:00,74.2,66.5,30.17,SE,137,0.0,0.0,77,0.00,,---,0.00,VWS V13.01,2013-04-27 05:18:00,
2013-04-27 01:23:00,74.3,66.6,30.16,East,86,0.0,7.0,77,0.00,,---,0.00,VWS V13.01,2013-04-27 05:23:00,
2013-04-27 01:28:00,74.4,66.7,30.16,East,94,0.0,7.0,77,0.00,,---,0.00,VWS V13.01,2013-04-27 05:28:00,
2013-04-27 01:33:00,74.4,66.7,30.16,ESE,119,0.0,0.0,77,0.00,,---,0.00,VWS V13.01,2013-04-27 05:33:00,
2013-04-27 01:38:00,74.4,66.7,30.16,ESE,118,0.0,0.0,77,0.00,,---,0.00,VWS V13.01,2013-04-27 05:38:00,
2013-04-27 01:44:00,74.4,66.7,30.16,ENE,71,0.0,11.0,77,0.00,,---,0.00,VWS V13.01,2013-04-27 05:44:00,
2013-04-27 01:49:00,74.4,67.1,30.15,SE,126,0.0,11.0,78,0.00,,---,0.00,VWS V13.01,2013-04-27 05:49:00,
2013-04-27 01:54:00,74.4,67.1,30.15,ENE,74,0.0,11.0,78,0.00,,---,0.00,VWS V13.01,2013-04-27 05:54:00,
2013-04-27 01:59:00,74.3,67.0,30.15,East,98,0.0,11.0,78,0.00,,---,0.00,VWS V13.01,2013-04-27 05:59:00,
2013-04-27 02:04:00,74.2,66.9,30.15,ESE,117,0.0,0.0,78,0.00,,---,0.00,VWS V13.01,2013-04-27 06:04:00,
2013-04-27 02:09:00,74.1,66.8,30.15,East,90,0.0,0.0,78,0.00,,---,0.00,VWS V13.01,2013-04-27 06:09:00,
2013-04-27 02:14:00,74.0,67.1,30.15,ESE,105,0.0,0.0,79,0.00,,---,0.00,VWS V13.01,2013-04-27 06:14:00,
2013-04-27 02:19:00,73.9,67.0,30.15,East,79,0.0,0.0,79,0.00,,---,0.00,VWS V13.01,2013-04-27 06:19:00,
2013-04-27 02:24:00,73.8,66.9,30.14,SE,130,0.0,1.0,79,0.00,,---,0.00,VWS V13.01,2013-04-27 06:24:00,
2013-04-27 02:30:00,73.8,66.9,30.14,SE,136,0.0,0.0,79,0.00,,---,0.00,VWS V13.01,2013-04-27 06:30:00,
2013-04-27 02:35:00,73.7,66.8,30.14,ESE,106,0.0,5.0,79,0.00,,---,0.00,VWS V13.01,2013-04-27 06:35:00,
2013-04-27 02:40:00,73.6,67.1,30.13,East,91,0.0,5.0,80,0.00,,---,0.00,VWS V13.01,2013-04-27 06:40:00,
2013-04-27 02:45:00,73.5,67.0,30.13,SE,125,0.0,5.0,80,0.00,,---,0.00,VWS V13.01,2013-04-27 06:45:00,
2013-04-27 02:50:00,73.4,66.9,30.13,East,87,0.0,5.0,80,0.00,,---,0.00,VWS V13.01,2013-04-27 06:50:00,
2013-04-27 02:55:00,73.3,66.8,30.13,ESE,105,0.0,5.0,80,0.00,,---,0.00,VWS V13.01,2013-04-27 06:55:00,
2013-04-27 03:00:00,73.2,66.7,30.13,ESE,105,0.0,0.0,80,0.00,,---,0.00,VWS V13.01,2013-04-27 07:00:00,
2013-04-27 03:05:00,73.1,66.9,30.13,SE,130,0.0,3.0,81,0.00,,---,0.00,VWS V13.01,2013-04-27 07:05:00,
2013-04-27 03:11:00,73.0,66.8,30.13,East,79,0.0,3.0,81,0.00,,---,0.00,VWS V13.01,2013-04-27 07:11:00,
2013-04-27 03:16:00,72.9,66.7,30.13,East,96,0.0,3.0,81,0.00,,---,0.00,VWS V13.01,2013-04-27 07:16:00,
2013-04-27 03:21:00,72.8,66.6,30.13,East,90,0.0,3.0,81,0.00,,---,0.00,VWS V13.01,2013-04-27 07:21:00,
2013-04-27 03:26:00,72.7,66.5,30.13,East,97,0.0,3.0,81,0.00,,---,0.00,VWS V13.01,2013-04-27 07:26:00,
2013-04-27 03:31:00,72.7,66.5,30.13,East,82,0.0,0.0,81,0.00,,---,0.00,VWS V13.01,2013-04-27 07:31:00,
2013-04-27 03:36:00,72.6,66.4,30.13,ESE,123,0.0,0.0,81,0.00,,---,0.00,VWS V13.01,2013-04-27 07:36:00,
2013-04-27 03:41:00,72.5,66.7,30.13,ESE,107,0.0,0.0,82,0.00,,---,0.00,VWS V13.01,2013-04-27 07:41:00,
2013-04-27 03:46:00,72.4,66.6,30.13,ESE,107,0.0,0.0,82,0.00,,---,0.00,VWS V13.01,2013-04-27 07:46:00,
2013-04-27 03:51:00,72.3,66.5,30.13,ESE,112,0.0,0.0,82,0.00,,---,0.00,VWS V13.01,2013-04-27 07:51:00,
2013-04-27 03:56:00,72.2,66.4,30.13,ESE,113,0.0,0.0,82,0.00,,---,0.00,VWS V13.01,2013-04-27 07:56:00,
2013-04-27 04:02:00,72.1,66.3,30.12,ESE,113,0.0,0.0,82,0.00,,---,0.00,VWS V13.01,2013-04-27 08:02:00,
2013-04-27 04:07:00,71.9,66.1,30.12,ESE,113,0.0,0.0,82,0.00,,---,0.00,VWS V13.01,2013-04-27 08:07:00,
2013-04-27 04:12:00,71.8,66.0,30.13,ESE,113,0.0,0.0,82,0.00,,---,0.00,VWS V13.01,2013-04-27 08:12:00,
2013-04-27 04:17:00,71.7,65.9,30.12,ESE,113,0.0,0.0,82,0.00,,---,0.00,VWS V13.01,2013-04-27 08:17:00,
2013-04-27 04:22:00,71.6,66.2,30.13,ESE,113,0.0,0.0,83,0.00,,---,0.00,VWS V13.01,2013-04-27 08:22:00,
2013-04-27 04:27:00,71.6,66.2,30.13,ESE,113,0.0,0.0,83,0.00,,---,0.00,VWS V13.01,2013-04-27 08:27:00,
2013-04-27 04:32:00,71.5,66.1,30.13,ESE,113,0.0,0.0,83,0.00,,---,0.00,VWS V13.01,2013-04-27 08:32:00,
2013-04-27 04:37:00,71.5,66.1,30.12,ESE,107,0.0,0.0,83,0.00,,---,0.00,VWS V13.01,2013-04-27 08:37:00,
2013-04-27 04:43:00,71.5,66.1,30.12,ESE,104,0.0,0.0,83,0.00,,---,0.00,VWS V13.01,2013-04-27 08:43:00,
2013-04-27 04:48:00,71.5,66.1,30.12,SE,128,0.0,0.0,83,0.00,,---,0.00,VWS V13.01,2013-04-27 08:48:00,
2013-04-27 04:53:00,71.5,66.1,30.12,ESE,115,0.0,0.0,83,0.00,,---,0.00,VWS V13.01,2013-04-27 08:53:00,
2013-04-27 04:58:00,71.5,66.1,30.12,ESE,113,0.0,0.0,83,0.00,,---,0.00,VWS V13.01,2013-04-27 08:58:00,
2013-04-27 05:03:00,71.5,66.4,30.12,East,99,0.0,0.0,84,0.00,,---,0.00,VWS V13.01,2013-04-27 09:03:00,
2013-04-27 05:08:00,71.4,66.3,30.12,East,99,0.0,0.0,84,0.00,,---,0.00,VWS V13.01,2013-04-27 09:08:00,
2013-04-27 05:13:00,71.4,66.3,30.12,East,99,0.0,0.0,84,0.00,,---,0.00,VWS V13.01,2013-04-27 09:13:00,
2013-04-27 05:18:00,71.3,65.9,30.12,East,100,0.0,0.0,83,0.00,,---,0.00,VWS V13.01,2013-04-27 09:18:00,
2013-04-27 05:24:00,71.2,66.1,30.11,East,100,0.0,0.0,84,0.00,,---,0.00,VWS V13.01,2013-04-27 09:24:00,
2013-04-27 05:29:00,71.0,65.9,30.11,East,97,0.0,0.0,84,0.00,,---,0.00,VWS V13.01,2013-04-27 09:29:00,
2013-04-27 05:34:00,71.0,65.9,30.11,East,97,0.0,0.0,84,0.00,,---,0.00,VWS V13.01,2013-04-27 09:34:00,
2013-04-27 05:39:00,70.8,65.7,30.11,East,97,0.0,0.0,84,0.00,,---,0.00,VWS V13.01,2013-04-27 09:39:00,
2013-04-27 05:44:00,70.8,65.7,30.11,East,97,0.0,0.0,84,0.00,,---,0.00,VWS V13.01,2013-04-27 09:44:00,
2013-04-27 05:49:00,70.7,65.6,30.11,East,97,0.0,0.0,84,0.00,,---,0.00,VWS V13.01,2013-04-27 09:49:00,
2013-04-27 05:54:00,70.6,65.5,30.11,East,97,0.0,0.0,84,0.00,,---,0.00,VWS V13.01,2013-04-27 09:54:00,
2013-04-27 05:59:00,70.5,65.4,30.11,East,97,0.0,0.0,84,0.00,,---,0.00,VWS V13.01,2013-04-27 09:59:00,
2013-04-27 06:05:00,70.4,65.3,30.11,East,97,0.0,0.0,84,0.00,,---,0.00,VWS V13.01,2013-04-27 10:05:00,
2013-04-27 06:10:00,70.3,65.2,30.11,East,99,0.0,0.0,84,0.00,,---,0.00,VWS V13.01,2013-04-27 10:10:00,
2013-04-27 06:15:00,70.2,65.1,30.11,East,99,0.0,0.0,84,0.00,,---,0.00,VWS V13.01,2013-04-27 10:15:00,
2013-04-27 06:20:00,70.2,65.1,30.11,East,99,0.0,0.0,84,0.00,,---,0.00,VWS V13.01,2013-04-27 10:20:00,
2013-04-27 06:25:00,70.1,65.1,30.11,East,97,0.0,0.0,84,0.00,,---,0.00,VWS V13.01,2013-04-27 10:25:00,
2013-04-27 06:30:00,70.0,64.9,30.12,East,97,0.0,0.0,84,0.00,,---,0.00,VWS V13.01,2013-04-27 10:30:00,
2013-04-27 06:35:00,70.0,64.9,30.12,East,96,0.0,0.0,84,0.00,,---,0.00,VWS V13.01,2013-04-27 10:35:00,
2013-04-27 06:40:00,70.0,65.3,30.12,East,96,0.0,0.0,85,0.00,,---,0.00,VWS V13.01,2013-04-27 10:40:00,
2013-04-27 06:46:00,70.0,65.3,30.12,East,96,0.0,0.0,85,0.00,,---,0.00,VWS V13.01,2013-04-27 10:46:00,
2013-04-27 06:51:00,70.0,65.3,30.12,East,96,0.0,0.0,85,0.00,,---,0.00,VWS V13.01,2013-04-27 10:51:00,
2013-04-27 06:56:00,69.9,65.2,30.12,East,96,0.0,0.0,85,0.00,,---,0.00,VWS V13.01,2013-04-27 10:56:00,
2013-04-27 07:01:00,69.9,65.2,30.12,East,96,0.0,0.0,85,0.00,,---,0.00,VWS V13.01,2013-04-27 11:01:00,
2013-04-27 07:06:00,69.9,65.2,30.13,East,96,0.0,0.0,85,0.00,,---,0.00,VWS V13.01,2013-04-27 11:06:00,
2013-04-27 07:11:00,69.9,65.2,30.12,ESE,103,0.0,0.0,85,0.00,,---,0.00,VWS V13.01,2013-04-27 11:11:00,
2013-04-27 07:16:00,70.0,65.3,30.13,ESE,103,0.0,0.0,85,0.00,,---,0.00,VWS V13.01,2013-04-27 11:16:00,
2013-04-27 07:21:00,70.1,65.4,30.13,ESE,103,0.0,0.0,85,0.00,,---,0.00,VWS V13.01,2013-04-27 11:21:00,
2013-04-27 07:27:00,70.2,65.5,30.13,ESE,103,0.0,0.0,85,0.00,,---,0.00,VWS V13.01,2013-04-27 11:27:00,
2013-04-27 07:32:00,70.4,65.3,30.13,ESE,103,0.0,0.0,84,0.00,,---,0.00,VWS V13.01,2013-04-27 11:32:00,
2013-04-27 07:37:00,70.6,65.5,30.14,ENE,58,0.0,0.0,84,0.00,,---,0.00,VWS V13.01,2013-04-27 11:37:00,
2013-04-27 07:42:00,70.8,65.7,30.14,East,97,0.0,0.0,84,0.00,,---,0.00,VWS V13.01,2013-04-27 11:42:00,
2013-04-27 07:47:00,70.9,65.8,30.14,ESE,112,0.0,0.0,84,0.00,,---,0.00,VWS V13.01,2013-04-27 11:47:00,
2013-04-27 07:52:00,71.0,65.9,30.14,ESE,106,0.0,0.0,84,0.00,,---,0.00,VWS V13.01,2013-04-27 11:52:00,
2013-04-27 07:57:00,71.2,66.1,30.14,ENE,59,0.0,0.0,84,0.00,,---,0.00,VWS V13.01,2013-04-27 11:57:00,
2013-04-27 08:02:00,71.3,66.2,30.14,East,92,0.0,0.0,84,0.00,,---,0.00,VWS V13.01,2013-04-27 12:02:00,
2013-04-27 08:07:00,71.5,66.4,30.14,ENE,59,0.0,1.0,84,0.00,,---,0.00,VWS V13.01,2013-04-27 12:07:00,
2013-04-27 08:13:00,71.7,66.6,30.14,East,89,0.0,1.0,84,0.00,,---,0.00,VWS V13.01,2013-04-27 12:13:00,
2013-04-27 08:18:00,71.9,66.8,30.15,ESE,122,0.0,1.0,84,0.00,,---,0.00,VWS V13.01,2013-04-27 12:18:00,
2013-04-27 08:23:00,72.1,67.0,30.15,ESE,115,0.0,1.0,84,0.00,,---,0.00,VWS V13.01,2013-04-27 12:23:00,
2013-04-27 08:28:00,72.3,67.2,30.15,ESE,122,0.0,1.0,84,0.00,,---,0.00,VWS V13.01,2013-04-27 12:28:00,
2013-04-27 08:33:00,72.6,67.5,30.15,ESE,110,0.0,0.0,84,0.00,,---,0.00,VWS V13.01,2013-04-27 12:33:00,
2013-04-27 08:38:00,72.8,67.3,30.15,SE,132,0.0,0.0,83,0.00,,---,0.00,VWS V13.01,2013-04-27 12:38:00,
2013-04-27 08:43:00,73.2,67.7,30.15,ESE,113,0.0,0.0,83,0.00,,---,0.00,VWS V13.01,2013-04-27 12:43:00,
2013-04-27 08:49:00,73.9,68.1,30.15,East,100,0.0,1.0,82,0.00,,---,0.00,VWS V13.01,2013-04-27 12:49:00,
2013-04-27 08:54:00,74.6,68.8,30.15,ESE,113,0.0,1.0,82,0.00,,---,0.00,VWS V13.01,2013-04-27 12:54:00,
2013-04-27 08:59:00,75.2,68.6,30.15,ESE,115,0.0,1.0,80,0.00,,---,0.00,VWS V13.01,2013-04-27 12:59:00,
2013-04-27 09:04:00,75.6,68.6,30.15,ESE,113,0.0,0.0,79,0.00,,---,0.00,VWS V13.01,2013-04-27 13:04:00,
2013-04-27 09:09:00,76.1,68.8,30.15,SE,128,0.0,1.0,78,0.00,,---,0.00,VWS V13.01,2013-04-27 13:09:00,
2013-04-27 09:14:00,76.5,68.8,30.15,SE,139,0.0,1.0,77,0.00,,---,0.00,VWS V13.01,2013-04-27 13:14:00,
2013-04-27 09:19:00,76.8,69.1,30.15,SE,136,0.0,1.0,77,0.00,,---,0.00,VWS V13.01,2013-04-27 13:19:00,
2013-04-27 09:25:00,77.1,68.6,30.15,East,83,0.0,1.0,75,0.00,,---,0.00,VWS V13.01,2013-04-27 13:25:00,
2013-04-27 09:30:00,77.2,68.7,30.15,ESE,111,0.0,0.0,75,0.00,,---,0.00,VWS V13.01,2013-04-27 13:30:00,
2013-04-27 09:35:00,77.3,68.4,30.15,SSE,165,0.0,0.0,74,0.00,,---,0.00,VWS V13.01,2013-04-27 13:35:00,
2013-04-27 09:40:00,77.7,68.8,30.15,East,101,0.0,0.0,74,0.00,,---,0.00,VWS V13.01,2013-04-27 13:40:00,
2013-04-27 09:48:00,78.1,68.3,30.15,SE,140,0.0,8.0,72,0.00,,---,0.00,VWS V13.01,2013-04-27 13:48:00,
2013-04-27 09:53:00,78.3,68.5,30.15,East,82,6.0,8.0,72,0.00,,---,0.00,VWS V13.01,2013-04-27 13:53:00,
2013-04-27 09:58:00,78.7,68.9,30.15,ESE,122,2.0,8.0,72,0.00,,---,0.00,VWS V13.01,2013-04-27 13:58:00,
2013-04-27 10:04:00,79.0,68.4,30.15,SE,130,2.0,9.0,70,0.00,,---,0.00,VWS V13.01,2013-04-27 14:04:00,
2013-04-27 10:09:00,78.9,68.3,30.15,ESE,107,1.0,9.0,70,0.00,,---,0.00,VWS V13.01,2013-04-27 14:09:00,
2013-04-27 10:14:00,79.0,68.4,30.15,SE,126,0.0,9.0,70,0.00,,---,0.00,VWS V13.01,2013-04-27 14:14:00,
2013-04-27 10:19:00,79.3,67.8,30.15,SE,140,2.0,10.0,68,0.00,,---,0.00,VWS V13.01,2013-04-27 14:19:00,
2013-04-27 10:24:00,79.4,67.5,30.15,SE,132,0.0,10.0,67,0.00,,---,0.00,VWS V13.01,2013-04-27 14:24:00,
2013-04-27 10:29:00,79.8,67.9,30.15,ESE,121,0.0,10.0,67,0.00,,---,0.00,VWS V13.01,2013-04-27 14:29:00,
2013-04-27 10:34:00,80.1,68.2,30.16,SE,136,0.0,7.0,67,0.00,,---,0.00,VWS V13.01,2013-04-27 14:34:00,
2013-04-27 10:39:00,80.1,68.6,30.16,ESE,123,0.0,7.0,68,0.00,,---,0.00,VWS V13.01,2013-04-27 14:39:00,
2013-04-27 10:44:00,80.5,68.1,30.16,South,169,0.0,7.0,66,0.00,,---,0.00,VWS V13.01,2013-04-27 14:44:00,
2013-04-27 10:49:00,80.7,66.9,30.16,SE,130,0.0,10.0,63,0.00,,---,0.00,VWS V13.01,2013-04-27 14:49:00,
2013-04-27 10:55:00,80.9,67.1,30.16,NE,56,0.0,10.0,63,0.00,,---,0.00,VWS V13.01,2013-04-27 14:55:00,
2013-04-27 11:00:00,81.1,67.3,30.16,NE,50,0.0,0.0,63,0.00,,---,0.00,VWS V13.01,2013-04-27 15:00:00,
2013-04-27 11:05:00,81.3,67.5,30.16,SE,127,0.0,7.0,63,0.00,,---,0.00,VWS V13.01,2013-04-27 15:05:00,
2013-04-27 11:10:00,81.6,67.8,30.16,SE,132,0.0,7.0,63,0.00,,---,0.00,VWS V13.01,2013-04-27 15:10:00,
2013-04-27 11:15:00,81.1,67.8,30.16,ESE,108,0.0,7.0,64,0.00,,---,0.00,VWS V13.01,2013-04-27 15:15:00,
2013-04-27 11:20:00,81.1,66.9,30.16,NE,53,5.0,7.0,62,0.00,,---,0.00,VWS V13.01,2013-04-27 15:20:00,
2013-04-27 11:25:00,81.6,66.9,30.16,East,94,3.0,7.0,61,0.00,,---,0.00,VWS V13.01,2013-04-27 15:25:00,
2013-04-27 11:31:00,82.3,67.0,30.16,East,93,0.0,0.0,60,0.00,,---,0.00,VWS V13.01,2013-04-27 15:31:00,
2013-04-27 11:36:00,83.2,68.4,30.16,East,92,0.0,1.0,61,0.00,,---,0.00,VWS V13.01,2013-04-27 15:36:00,
2013-04-27 11:41:00,83.5,68.2,30.16,East,98,0.0,5.0,60,0.00,,---,0.00,VWS V13.01,2013-04-27 15:41:00,
2013-04-27 11:46:00,84.0,68.1,30.16,ENE,65,0.0,5.0,59,0.00,,---,0.00,VWS V13.01,2013-04-27 15:46:00,
2013-04-27 11:51:00,83.8,68.0,30.16,East,79,0.0,7.0,59,0.00,,---,0.00,VWS V13.01,2013-04-27 15:51:00,
2013-04-27 11:56:00,83.3,67.5,30.16,SSE,167,3.0,7.0,59,0.00,,---,0.00,VWS V13.01,2013-04-27 15:56:00,
2013-04-27 12:01:00,82.4,66.7,30.16,ENE,59,0.0,3.0,59,0.00,,---,0.00,VWS V13.01,2013-04-27 16:01:00,
2013-04-27 12:07:00,82.0,66.8,30.15,NE,48,0.0,3.0,60,0.00,,---,0.00,VWS V13.01,2013-04-27 16:07:00,
2013-04-27 12:12:00,81.9,66.7,30.16,ENE,59,0.0,3.0,60,0.00,,---,0.00,VWS V13.01,2013-04-27 16:12:00,
2013-04-27 12:17:00,82.5,67.2,30.15,East,98,0.0,7.0,60,0.00,,---,0.00,VWS V13.01,2013-04-27 16:17:00,
2013-04-27 12:22:00,83.1,67.3,30.15,ENE,70,0.0,7.0,59,0.00,,---,0.00,VWS V13.01,2013-04-27 16:22:00,
2013-04-27 12:27:00,83.2,66.9,30.15,East,87,0.0,7.0,58,0.00,,---,0.00,VWS V13.01,2013-04-27 16:27:00,
2013-04-27 12:32:00,83.0,66.2,30.15,ENE,61,0.0,0.0,57,0.00,,---,0.00,VWS V13.01,2013-04-27 16:32:00,
2013-04-27 12:37:00,82.9,66.6,30.15,ENE,65,6.0,7.0,58,0.00,,---,0.00,VWS V13.01,2013-04-27 16:37:00,
2013-04-27 12:42:00,83.1,66.3,30.15,East,101,0.0,7.0,57,0.00,,---,0.00,VWS V13.01,2013-04-27 16:42:00,
2013-04-27 12:48:00,83.3,66.5,30.14,ESE,114,0.0,7.0,57,0.00,,---,0.00,VWS V13.01,2013-04-27 16:48:00,
2013-04-27 12:53:00,83.3,66.5,30.14,SSE,158,3.0,9.0,57,0.00,,---,0.00,VWS V13.01,2013-04-27 16:53:00,
2013-04-27 12:58:00,83.5,66.2,30.14,SE,135,0.0,9.0,56,0.00,,---,0.00,VWS V13.01,2013-04-27 16:58:00,
2013-04-27 13:03:00,84.4,65.9,30.14,ESE,102,0.0,0.0,54,0.00,,---,0.00,VWS V13.01,2013-04-27 17:03:00,
2013-04-27 13:08:00,84.8,66.3,30.13,East,96,0.0,0.0,54,0.00,,---,0.00,VWS V13.01,2013-04-27 17:08:00,
2013-04-27 13:13:00,84.9,65.3,30.13,East,94,0.0,0.0,52,0.00,,---,0.00,VWS V13.01,2013-04-27 17:13:00,
2013-04-27 13:18:00,85.1,65.5,30.13,ENE,57,0.0,0.0,52,0.00,,---,0.00,VWS V13.01,2013-04-27 17:18:00,
2013-04-27 13:24:00,84.8,65.2,30.13,ENE,78,2.0,6.0,52,0.00,,---,0.00,VWS V13.01,2013-04-27 17:24:00,
2013-04-27 13:29:00,85.1,65.5,30.13,East,97,0.0,6.0,52,0.00,,---,0.00,VWS V13.01,2013-04-27 17:29:00,
2013-04-27 13:34:00,85.0,66.0,30.13,SE,126,0.0,4.0,53,0.00,,---,0.00,VWS V13.01,2013-04-27 17:34:00,
2013-04-27 13:39:00,85.0,65.4,30.13,East,88,0.0,4.0,52,0.00,,---,0.00,VWS V13.01,2013-04-27 17:39:00,
2013-04-27 13:44:00,84.9,65.3,30.13,ENE,61,0.0,4.0,52,0.00,,---,0.00,VWS V13.01,2013-04-27 17:44:00,
2013-04-27 13:49:00,84.7,65.1,30.13,ESE,117,0.0,4.0,52,0.00,,---,0.00,VWS V13.01,2013-04-27 17:49:00,
2013-04-27 13:54:00,84.8,65.2,30.13,NNW,348,0.0,4.0,52,0.00,,---,0.00,VWS V13.01,2013-04-27 17:54:00,
2013-04-27 13:59:00,84.5,64.4,30.12,NE,45,0.0,4.0,51,0.00,,---,0.00,VWS V13.01,2013-04-27 17:59:00,
2013-04-27 14:04:00,82.9,69.5,30.12,NW,310,0.0,7.0,64,0.00,,---,0.00,VWS V13.01,2013-04-27 18:04:00,
2013-04-27 14:10:00,81.4,69.4,30.12,West,279,0.0,7.0,67,0.00,,---,0.00,VWS V13.01,2013-04-27 18:10:00,
2013-04-27 14:15:00,81.0,70.3,30.12,West,267,2.0,7.0,70,0.00,,---,0.00,VWS V13.01,2013-04-27 18:15:00,
2013-04-27 14:20:00,81.2,70.5,30.11,West,273,0.0,7.0,70,0.00,,---,0.00,VWS V13.01,2013-04-27 18:20:00,
2013-04-27 14:25:00,81.0,70.3,30.11,NNE,14,0.0,7.0,70,0.00,,---,0.00,VWS V13.01,2013-04-27 18:25:00,
2013-04-27 14:30:00,80.8,69.7,30.11,WSW,254,5.0,6.0,69,0.00,,---,0.00,VWS V13.01,2013-04-27 18:30:00,
2013-04-27 14:35:00,79.5,68.9,30.11,NW,304,0.0,8.0,70,0.00,,---,0.00,VWS V13.01,2013-04-27 18:35:00,
2013-04-27 14:40:00,78.7,69.3,30.11,West,277,0.0,9.0,73,0.00,,---,0.00,VWS V13.01,2013-04-27 18:40:00,
2013-04-27 14:45:00,78.3,68.9,30.10,West,275,1.0,9.0,73,0.00,,---,0.00,VWS V13.01,2013-04-27 18:45:00,
2013-04-27 14:51:00,78.3,69.7,30.10,West,267,4.0,9.0,75,0.00,,---,0.00,VWS V13.01,2013-04-27 18:51:00,
2013-04-27 14:56:00,78.9,69.9,30.10,West,271,3.0,9.0,74,0.00,,---,0.00,VWS V13.01,2013-04-27 18:56:00,
2013-04-27 15:01:00,79.8,70.8,30.09,WNW,286,0.0,0.0,74,0.00,,---,0.00,VWS V13.01,2013-04-27 19:01:00,
2013-04-27 15:06:00,81.0,70.7,30.09,NNE,13,0.0,4.0,71,0.00,,---,0.00,VWS V13.01,2013-04-27 19:06:00,
2013-04-27 15:11:00,81.4,69.4,30.09,WNW,286,1.0,6.0,67,0.00,,---,0.00,VWS V13.01,2013-04-27 19:11:00,
2013-04-27 15:16:00,81.0,70.3,30.09,NW,322,0.0,10.0,70,0.00,,---,0.00,VWS V13.01,2013-04-27 19:16:00,
2013-04-27 15:21:00,81.8,70.2,30.09,NW,325,0.0,10.0,68,0.00,,---,0.00,VWS V13.01,2013-04-27 19:21:00,
2013-04-27 15:26:00,82.1,70.1,30.08,WNW,290,0.0,10.0,67,0.00,,---,0.00,VWS V13.01,2013-04-27 19:26:00,
2013-04-27 15:32:00,81.9,69.0,30.08,NNW,343,6.0,10.0,65,0.00,,---,0.00,VWS V13.01,2013-04-27 19:32:00,
2013-04-27 15:37:00,81.7,69.7,30.08,North,355,0.0,10.0,67,0.00,,---,0.00,VWS V13.01,2013-04-27 19:37:00,
2013-04-27 15:42:00,82.4,70.3,30.08,NW,306,0.0,10.0,67,0.00,,---,0.00,VWS V13.01,2013-04-27 19:42:00,
2013-04-27 15:47:00,82.8,70.3,30.07,NW,323,1.0,10.0,66,0.00,,---,0.00,VWS V13.01,2013-04-27 19:47:00,
2013-04-27 15:52:00,82.9,70.8,30.08,North,350,0.0,10.0,67,0.00,,---,0.00,VWS V13.01,2013-04-27 19:52:00,
2013-04-27 15:57:00,81.8,70.6,30.07,NNW,340,0.0,10.0,69,0.00,,---,0.00,VWS V13.01,2013-04-27 19:57:00,
2013-04-27 16:02:00,81.7,70.6,30.07,North,5,6.0,7.0,69,0.00,,---,0.00,VWS V13.01,2013-04-27 20:02:00,
2013-04-27 16:07:00,81.4,70.3,30.07,NW,313,0.0,9.0,69,0.00,,---,0.00,VWS V13.01,2013-04-27 20:07:00,
2013-04-27 16:12:00,81.0,70.3,30.07,NNW,330,5.0,9.0,70,0.00,,---,0.00,VWS V13.01,2013-04-27 20:12:00,
2013-04-27 16:18:00,81.0,69.9,30.07,West,281,4.0,9.0,69,0.00,,---,0.00,VWS V13.01,2013-04-27 20:18:00,
2013-04-27 16:23:00,81.5,69.9,30.06,NW,315,0.0,9.0,68,0.00,,---,0.00,VWS V13.01,2013-04-27 20:23:00,
2013-04-27 16:28:00,81.4,69.4,30.06,NNW,334,0.0,10.0,67,0.00,,---,0.00,VWS V13.01,2013-04-27 20:28:00,
2013-04-27 16:33:00,81.2,69.6,30.06,NNW,339,0.0,5.0,68,0.00,,---,0.00,VWS V13.01,2013-04-27 20:33:00,
2013-04-27 16:38:00,81.4,68.5,30.06,West,271,2.0,9.0,65,0.00,,---,0.00,VWS V13.01,2013-04-27 20:38:00,
2013-04-27 16:43:00,81.6,68.7,30.06,NNW,334,0.0,9.0,65,0.00,,---,0.00,VWS V13.01,2013-04-27 20:43:00,
2013-04-27 16:48:00,82.2,69.3,30.06,NNW,327,0.0,9.0,65,0.00,,---,0.00,VWS V13.01,2013-04-27 20:48:00,
2013-04-27 16:53:00,82.0,69.5,30.06,NNE,23,0.0,9.0,66,0.00,,---,0.00,VWS V13.01,2013-04-27 20:53:00,
2013-04-27 16:59:00,81.7,69.7,30.06,NNE,33,0.0,10.0,67,0.00,,---,0.00,VWS V13.01,2013-04-27 20:59:00,
2013-04-27 17:04:00,81.2,69.6,30.06,West,275,0.0,9.0,68,0.00,,---,0.00,VWS V13.01,2013-04-27 21:04:00,
2013-04-27 17:09:00,81.3,70.2,30.06,WNW,290,0.0,9.0,69,0.00,,---,0.00,VWS V13.01,2013-04-27 21:09:00,
2013-04-27 17:14:00,80.8,69.7,30.05,West,272,0.0,9.0,69,0.00,,---,0.00,VWS V13.01,2013-04-27 21:14:00,
2013-04-27 17:19:00,81.0,69.4,30.05,NNW,345,0.0,9.0,68,0.00,,---,0.00,VWS V13.01,2013-04-27 21:19:00,
2013-04-27 17:24:00,80.7,69.2,30.05,NNE,21,0.0,9.0,68,0.00,,---,0.00,VWS V13.01,2013-04-27 21:24:00,
2013-04-27 17:29:00,81.0,69.9,30.05,North,355,0.0,9.0,69,0.00,,---,0.00,VWS V13.01,2013-04-27 21:29:00,
2013-04-27 17:34:00,81.5,69.1,30.05,West,281,3.0,10.0,66,0.00,,---,0.00,VWS V13.01,2013-04-27 21:34:00,
2013-04-27 17:40:00,81.1,69.1,30.05,WNW,285,0.0,10.0,67,0.00,,---,0.00,VWS V13.01,2013-04-27 21:40:00,
2013-04-27 17:45:00,81.1,68.7,30.05,NNW,331,0.0,10.0,66,0.00,,---,0.00,VWS V13.01,2013-04-27 21:45:00,
2013-04-27 17:50:00,80.9,69.4,30.05,NNE,28,0.0,10.0,68,0.00,,---,0.00,VWS V13.01,2013-04-27 21:50:00,
2013-04-27 17:55:00,80.5,69.0,30.05,NW,323,0.0,10.0,68,0.00,,---,0.00,VWS V13.01,2013-04-27 21:55:00,
2013-04-27 18:00:00,80.6,69.1,30.05,WNW,298,0.0,0.0,68,0.00,,---,0.00,VWS V13.01,2013-04-27 22:00:00,
2013-04-27 18:05:00,80.3,69.6,30.05,NNE,17,0.0,7.0,70,0.00,,---,0.00,VWS V13.01,2013-04-27 22:05:00,
2013-04-27 18:10:00,80.4,69.3,30.05,WNW,284,0.0,9.0,69,0.00,,---,0.00,VWS V13.01,2013-04-27 22:10:00,
2013-04-27 18:15:00,80.2,69.5,30.05,NNW,346,0.0,10.0,70,0.00,,---,0.00,VWS V13.01,2013-04-27 22:15:00,
2013-04-27 18:21:00,80.4,69.7,30.05,NNW,346,0.0,10.0,70,0.00,,---,0.00,VWS V13.01,2013-04-27 22:21:00,
2013-04-27 18:26:00,80.5,70.2,30.05,NE,36,0.0,10.0,71,0.00,,---,0.00,VWS V13.01,2013-04-27 22:26:00,
2013-04-27 18:31:00,80.6,69.9,30.05,NW,306,0.0,3.0,70,0.00,,---,0.00,VWS V13.01,2013-04-27 22:31:00,
2013-04-27 18:36:00,80.5,69.4,30.05,NNE,24,0.0,7.0,69,0.00,,---,0.00,VWS V13.01,2013-04-27 22:36:00,
2013-04-27 18:41:00,80.1,69.0,30.05,North,5,0.0,7.0,69,0.00,,---,0.00,VWS V13.01,2013-04-27 22:41:00,
2013-04-27 18:46:00,80.0,69.3,30.05,NW,307,0.0,9.0,70,0.00,,---,0.00,VWS V13.01,2013-04-27 22:46:00,
2013-04-27 18:51:00,79.8,69.2,30.05,North,11,0.0,9.0,70,0.00,,---,0.00,VWS V13.01,2013-04-27 22:51:00,
2013-04-27 18:56:00,79.7,69.1,30.05,NW,306,0.0,9.0,70,0.00,,---,0.00,VWS V13.01,2013-04-27 22:56:00,
2013-04-27 19:02:00,79.4,68.8,30.05,North,355,4.0,6.0,70,0.00,,---,0.00,VWS V13.01,2013-04-27 23:02:00,
2013-04-27 19:07:00,79.2,69.0,30.05,NNE,18,0.0,6.0,71,0.00,,---,0.00,VWS V13.01,2013-04-27 23:07:00,
2013-04-27 19:12:00,78.9,68.7,30.05,WNW,294,0.0,7.0,71,0.00,,---,0.00,VWS V13.01,2013-04-27 23:12:00,
2013-04-27 19:17:00,78.8,68.6,30.04,North,5,0.0,7.0,71,0.00,,---,0.00,VWS V13.01,2013-04-27 23:17:00,
2013-04-27 19:22:00,78.9,68.3,30.04,NW,308,0.0,7.0,70,0.00,,---,0.00,VWS V13.01,2013-04-27 23:22:00,
2013-04-27 19:27:00,78.7,67.7,30.05,North,355,0.0,10.0,69,0.00,,---,0.00,VWS V13.01,2013-04-27 23:27:00,
2013-04-27 19:32:00,78.4,67.4,30.05,NW,314,0.0,6.0,69,0.00,,---,0.00,VWS V13.01,2013-04-27 23:32:00,
2013-04-27 19:37:00,78.1,67.9,30.05,NNW,337,0.0,6.0,71,0.00,,---,0.00,VWS V13.01,2013-04-27 23:37:00,
2013-04-27 19:43:00,77.9,68.2,30.05,NNW,339,0.0,6.0,72,0.00,,---,0.00,VWS V13.01,2013-04-27 23:43:00,
2013-04-27 19:48:00,77.7,68.0,30.05,NNW,342,0.0,6.0,72,0.00,,---,0.00,VWS V13.01,2013-04-27 23:48:00,
2013-04-27 19:53:00,77.4,67.7,30.05,NNE,12,0.0,7.0,72,0.00,,---,0.00,VWS V13.01,2013-04-27 23:53:00,
2013-04-27 19:58:00,77.1,67.4,30.05,North,355,0.0,7.0,72,0.00,,---,0.00,VWS V13.01,2013-04-27 23:58:00,
2013-04-27 20:03:00,76.8,67.5,30.05,North,5,0.0,0.0,73,0.00,,---,0.00,VWS V13.01,2013-04-28 00:03:00,
2013-04-27 20:08:00,76.6,67.3,30.05,North,360,0.0,2.0,73,0.00,,---,0.00,VWS V13.01,2013-04-28 00:08:00,
2013-04-27 20:13:00,76.5,67.2,30.05,NNW,348,0.0,2.0,73,0.00,,---,0.00,VWS V13.01,2013-04-28 00:13:00,
2013-04-27 20:18:00,76.3,67.0,30.05,NNE,23,0.0,2.0,73,0.00,,---,0.00,VWS V13.01,2013-04-28 00:18:00,
2013-04-27 20:24:00,76.2,67.3,30.05,NNE,29,0.0,2.0,74,0.00,,---,0.00,VWS V13.01,2013-04-28 00:24:00,
2013-04-27 20:29:00,76.1,67.2,30.05,NNE,24,0.0,2.0,74,0.00,,---,0.00,VWS V13.01,2013-04-28 00:29:00,
2013-04-27 20:34:00,76.0,67.1,30.05,North,11,0.0,0.0,74,0.00,,---,0.00,VWS V13.01,2013-04-28 00:34:00,
2013-04-27 20:39:00,76.0,67.5,30.06,NNE,15,0.0,0.0,75,0.00,,---,0.00,VWS V13.01,2013-04-28 00:39:00,
2013-04-27 20:44:00,75.9,67.4,30.06,North,5,0.0,0.0,75,0.00,,---,0.00,VWS V13.01,2013-04-28 00:44:00,
2013-04-27 20:49:00,75.9,67.8,30.06,North,5,0.0,0.0,76,0.00,,---,0.00,VWS V13.01,2013-04-28 00:49:00,
2013-04-27 20:54:00,75.8,67.7,30.06,North,5,0.0,0.0,76,0.00,,---,0.00,VWS V13.01,2013-04-28 00:54:00,
2013-04-27 20:59:00,75.8,67.7,30.06,North,9,0.0,0.0,76,0.00,,---,0.00,VWS V13.01,2013-04-28 00:59:00,
2013-04-27 21:05:00,75.7,68.0,30.06,North,9,0.0,0.0,77,0.00,,---,0.00,VWS V13.01,2013-04-28 01:05:00,
2013-04-27 21:10:00,75.5,67.8,30.06,North,9,0.0,0.0,77,0.00,,---,0.00,VWS V13.01,2013-04-28 01:10:00,
2013-04-27 21:15:00,75.4,67.7,30.06,North,9,0.0,0.0,77,0.00,,---,0.00,VWS V13.01,2013-04-28 01:15:00,
2013-04-27 21:20:00,75.2,67.1,30.06,North,9,0.0,0.0,76,0.00,,---,0.00,VWS V13.01,2013-04-28 01:20:00,
2013-04-27 21:25:00,75.1,67.4,30.06,North,9,0.0,0.0,77,0.00,,---,0.00,VWS V13.01,2013-04-28 01:25:00,
2013-04-27 21:30:00,75.0,67.3,30.06,North,9,0.0,0.0,77,0.00,,---,0.00,VWS V13.01,2013-04-28 01:30:00,
2013-04-27 21:35:00,74.9,67.2,30.06,North,9,0.0,0.0,77,0.00,,---,0.00,VWS V13.01,2013-04-28 01:35:00,
2013-04-27 21:40:00,74.8,67.1,30.06,North,9,0.0,0.0,77,0.00,,---,0.00,VWS V13.01,2013-04-28 01:40:00,
2013-04-27 21:45:00,74.7,67.0,30.06,North,9,0.0,0.0,77,0.00,,---,0.00,VWS V13.01,2013-04-28 01:45:00,
2013-04-27 21:50:00,74.6,66.9,30.06,North,9,0.0,0.0,77,0.00,,---,0.00,VWS V13.01,2013-04-28 01:50:00,
2013-04-27 21:56:00,74.5,66.8,30.07,North,9,0.0,0.0,77,0.00,,---,0.00,VWS V13.01,2013-04-28 01:56:00,
2013-04-27 22:01:00,74.5,66.8,30.07,NNE,22,0.0,0.0,77,0.00,,---,0.00,VWS V13.01,2013-04-28 02:01:00,
2013-04-27 22:06:00,74.5,66.4,30.07,NNE,31,0.0,0.0,76,0.00,,---,0.00,VWS V13.01,2013-04-28 02:06:00,
2013-04-27 22:11:00,74.8,66.3,30.07,ENE,78,0.0,0.0,75,0.00,,---,0.00,VWS V13.01,2013-04-28 02:11:00,
2013-04-27 22:16:00,75.3,66.4,30.07,SE,125,0.0,0.0,74,0.00,,---,0.00,VWS V13.01,2013-04-28 02:16:00,
2013-04-27 22:21:00,76.2,66.5,30.08,ESE,107,0.0,10.0,72,0.00,,---,0.00,VWS V13.01,2013-04-28 02:21:00,
2013-04-27 22:26:00,76.7,66.2,30.08,ESE,107,0.0,10.0,70,0.00,,---,0.00,VWS V13.01,2013-04-28 02:26:00,
2013-04-27 22:31:00,76.9,66.4,30.08,ESE,104,0.0,4.0,70,0.00,,---,0.00,VWS V13.01,2013-04-28 02:31:00,
2013-04-27 22:36:00,77.0,66.5,30.08,ESE,110,3.0,9.0,70,0.00,,---,0.00,VWS V13.01,2013-04-28 02:36:00,
2013-04-27 22:41:00,77.0,66.5,30.08,East,90,0.0,9.0,70,0.00,,---,0.00,VWS V13.01,2013-04-28 02:41:00,
2013-04-27 22:47:00,76.9,66.8,30.08,ESE,111,0.0,9.0,71,0.00,,---,0.00,VWS V13.01,2013-04-28 02:47:00,
2013-04-27 22:52:00,76.9,66.8,30.08,SE,135,0.0,9.0,71,0.00,,---,0.00,VWS V13.01,2013-04-28 02:52:00,
2013-04-27 22:57:00,76.8,66.7,30.08,NNE,21,0.0,9.0,71,0.00,,---,0.00,VWS V13.01,2013-04-28 02:57:00,
2013-04-27 23:02:00,76.7,67.0,30.08,East,91,0.0,8.0,72,0.00,,---,0.00,VWS V13.01,2013-04-28 03:02:00,
2013-04-27 23:07:00,76.6,66.9,30.08,SE,138,0.0,9.0,72,0.00,,---,0.00,VWS V13.01,2013-04-28 03:07:00,
2013-04-27 23:12:00,76.5,66.8,30.08,SE,144,0.0,9.0,72,0.00,,---,0.00,VWS V13.01,2013-04-28 03:12:00,
2013-04-27 23:17:00,76.4,66.7,30.08,ESE,107,0.0,9.0,72,0.00,,---,0.00,VWS V13.01,2013-04-28 03:17:00,
2013-04-27 23:23:00,76.3,66.6,30.09,SE,125,0.0,9.0,72,0.00,,---,0.00,VWS V13.01,2013-04-28 03:23:00,
2013-04-27 23:28:00,76.2,66.5,30.08,ESE,119,0.0,10.0,72,0.00,,---,0.00,VWS V13.01,2013-04-28 03:28:00,
2013-04-27 23:33:00,76.0,66.3,30.08,ESE,118,0.0,6.0,72,0.00,,---,0.00,VWS V13.01,2013-04-28 03:33:00,
2013-04-27 23:38:00,75.9,66.2,30.08,East,93,0.0,8.0,72,0.00,,---,0.00,VWS V13.01,2013-04-28 03:38:00,
2013-04-27 23:43:00,75.7,66.0,30.08,ESE,113,5.0,8.0,72,0.00,,---,0.00,VWS V13.01,2013-04-28 03:43:00,
2013-04-27 23:48:00,75.6,65.9,30.08,SSE,155,0.0,8.0,72,0.00,,---,0.00,VWS V13.01,2013-04-28 03:48:00,
2013-04-27 23:53:00,75.5,66.2,30.08,ESE,105,0.0,8.0,73,0.00,,---,0.00,VWS V13.01,2013-04-28 03:53:00,
2013-04-27 23:58:00,75.4,66.2,30.08,ESE,117,0.0,8.0,73,0.00,,---,0.00,VWS V13.01,2013-04-28 03:58:00,